KB3GVC-13 Weather Reports


Display with metric or nautical units.
time (UTC)temp
F
wind
direction
speed
MPH
gust
MPH
rain 1hr
in
rain 24hr
in
rain mn
in
humidity
%
barometer
mb
20260505101945 59 203 0.0 3.0 0.00 0.00 0.00 73 1012.3
20260505101443 59 165 1.0 4.0 0.00 0.00 0.00 73 1012.1
20260505100940 59 196 0.0 2.0 0.00 0.00 0.00 73 1012.1
20260505100437 59 260 0.0 1.0 0.00 0.00 0.00 73 1012.2
20260505095933 59 268 2.0 3.0 0.00 0.00 0.00 74 1012.3
20260505095430 59 188 0.0 2.0 0.00 0.00 0.00 73 1011.9
20260505094926 59 197 0.0 2.0 0.00 0.00 0.00 74 1012.1
20260505094423 59 214 0.0 1.0 0.00 0.00 0.00 74 1012.1
20260505093919 59 214 1.0 2.0 0.00 0.00 0.00 73 1012.1
20260505093416 59 214 0.0 1.0 0.00 0.00 0.00 74 1012.0
20260505092913 59 165 0.0 2.0 0.00 0.00 0.00 75 1011.9
20260505092411 59 162 1.0 2.0 0.00 0.00 0.00 74 1011.9
20260505091908 59 156 0.0 2.0 0.00 0.00 0.00 74 1011.9
20260505091406 59 241 0.0 2.0 0.00 0.00 0.00 75 1011.8
20260505090904 58 195 0.0 1.0 0.00 0.00 0.00 77 1011.8
20260505090402 58 201 0.0 0.0 0.00 0.00 0.00 77 1011.7
20260505085859 58 201 1.0 2.0 0.00 0.00 0.00 77 1012.1
20260505085357 57 188 0.0 2.0 0.00 0.00 0.00 78 1012.2
20260505084855 56 154 0.0 0.0 0.00 0.00 0.00 81 1011.8
20260505084352 56 154 0.0 0.0 0.00 0.00 0.00 83 1012.0
20260505083850 55 180 0.0 0.0 0.00 0.00 0.00 84 1012.0
20260505083347 55 166 0.0 0.0 0.00 0.00 0.00 85 1011.9
20260505082843 55 166 0.0 0.0 0.00 0.00 0.00 85 1012.0
20260505082339 55 166 0.0 0.0 0.00 0.00 0.00 84 1012.0
20260505081836 56 166 0.0 0.0 0.00 0.00 0.00 83 1012.0
20260505081333 56 166 0.0 0.0 0.00 0.00 0.00 82 1012.1
20260505080830 57 166 0.0 0.0 0.00 0.00 0.00 82 1012.0
20260505080326 56 218 0.0 0.0 0.00 0.00 0.00 83 1012.1
20260505075821 56 218 0.0 0.0 0.00 0.00 0.00 82 1012.0
20260505075319 57 218 0.0 0.0 0.00 0.00 0.00 82 1012.0
20260505074816 57 218 0.0 0.0 0.00 0.00 0.00 81 1011.9
20260505074313 57 218 0.0 0.0 0.00 0.00 0.00 80 1012.0
20260505073810 58 218 0.0 0.0 0.00 0.00 0.00 79 1012.2
20260505073308 58 218 0.0 0.0 0.00 0.00 0.00 79 1012.1
20260505072805 59 218 0.0 0.0 0.00 0.00 0.00 77 1012.0
20260505072301 59 218 0.0 0.0 0.00 0.00 0.00 76 1012.1
20260505071757 60 218 0.0 0.0 0.00 0.00 0.00 74 1012.0
20260505071254 60 218 0.0 0.0 0.00 0.00 0.00 73 1012.1
20260505070751 60 218 0.0 0.0 0.00 0.00 0.00 72 1011.9
20260505070247 60 202 0.0 0.0 0.00 0.00 0.00 73 1012.0
20260505065743 60 202 0.0 0.0 0.00 0.00 0.00 73 1012.0
20260505065240 60 202 0.0 0.0 0.00 0.00 0.00 73 1011.9
20260505064737 60 202 0.0 0.0 0.00 0.00 0.00 73 1011.9
20260505064235 59 202 1.0 1.0 0.00 0.00 0.00 73 1011.7
20260505063732 59 202 0.0 1.0 0.00 0.00 0.00 74 1011.7
20260505063228 59 204 0.0 2.0 0.00 0.00 0.00 74 1011.7
20260505062725 59 288 0.0 0.0 0.00 0.00 0.00 74 1011.7
20260505062223 59 288 0.0 0.0 0.00 0.00 0.00 73 1011.9
20260505061719 59 288 0.0 0.0 0.00 0.00 0.00 73 1011.6
20260505061217 60 288 0.0 0.0 0.00 0.00 0.00 73 1011.9
20260505060714 60 288 0.0 1.0 0.00 0.00 0.00 72 1011.8
20260505060211 60 288 2.0 2.0 0.00 0.00 0.00 71 1011.7
20260505055707 60 150 1.0 3.0 0.00 0.00 0.00 71 1011.7
20260505055203 60 156 1.0 1.0 0.00 0.00 0.00 71 1011.8
20260505054700 60 156 1.0 1.0 0.00 0.00 0.00 71 1011.8
20260505054158 59 233 0.0 0.0 0.00 0.00 0.00 72 1011.9
20260505053656 59 233 0.0 0.0 0.00 0.00 0.00 72 1011.9
20260505053152 59 233 0.0 0.0 0.00 0.00 0.00 71 1012.0
20260505052649 60 233 0.0 0.0 0.00 0.00 0.00 70 1011.8
20260505052147 60 233 0.0 0.0 0.00 0.00 0.00 69 1011.9
20260505051643 59 243 1.0 2.0 0.00 0.00 0.00 70 1011.8
20260505051142 60 201 0.0 0.0 0.00 0.00 0.00 69 1011.8
20260505050639 59 157 1.0 2.0 0.00 0.00 0.00 69 1011.6
20260505050137 60 186 0.0 0.0 0.00 0.00 0.00 69 1011.9
20260505041607 59 123 0.0 0.0 0.00 0.00 0.00 67 1012.0
20260505041104 59 123 0.0 1.0 0.00 0.00 0.00 66 1011.8
20260505040601 59 123 0.0 2.0 0.00 0.00 0.00 65 1011.6
20260505040058 59 200 0.0 0.0 0.00 0.00 0.00 65 1011.7
20260505035555 59 200 0.0 0.0 0.00 0.00 0.00 64 1011.8
20260505035051 60 200 0.0 0.0 0.00 0.00 0.00 62 1011.7
20260505034547 60 200 0.0 0.0 0.00 0.00 0.00 61 1011.8
20260505034044 60 200 0.0 0.0 0.00 0.00 0.00 62 1011.8
20260505033542 60 200 0.0 0.0 0.00 0.00 0.00 61 1011.6
20260505033040 61 200 0.0 0.0 0.00 0.00 0.00 60 1011.7
20260505032537 62 200 0.0 0.0 0.00 0.00 0.00 59 1011.7
20260505032033 62 200 0.0 0.0 0.00 0.00 0.00 58 1011.8
20260505031531 62 200 0.0 0.0 0.00 0.00 0.00 57 1011.8
20260505031027 63 163 0.0 2.0 0.00 0.00 0.00 56 1011.7
20260505030524 63 134 0.0 2.0 0.00 0.00 0.00 55 1011.8
20260505030020 63 213 1.0 1.0 0.00 0.00 0.00 55 1011.7
20260505025516 63 157 0.0 1.0 0.00 0.00 0.00 54 1011.9
20260505025016 63 135 0.0 1.0 0.00 0.00 0.00 54 1011.8
20260505024512 63 135 1.0 2.0 0.00 0.00 0.00 53 1011.6
20260505024009 63 128 0.0 3.0 0.00 0.00 0.00 53 1011.8
20260505023506 63 131 0.0 1.0 0.00 0.00 0.00 52 1012.0
20260505023004 64 131 1.0 2.0 0.00 0.00 0.00 51 1012.0
20260505022501 64 157 2.0 3.0 0.00 0.00 0.00 51 1012.1
20260505021958 64 190 2.0 2.0 0.00 0.00 0.00 51 1012.1
20260505021454 64 133 1.0 2.0 0.00 0.00 0.00 50 1012.4
20260505020950 64 123 2.0 3.0 0.00 0.00 0.00 50 1011.7
20260505020445 64 181 0.0 2.0 0.00 0.00 0.00 50 1011.8
20260505015943 65 165 0.0 1.0 0.00 0.00 0.00 49 1012.0
20260505015440 65 197 1.0 4.0 0.00 0.00 0.00 48 1011.9
20260505014937 64 146 1.0 1.0 0.00 0.00 0.00 48 1011.8
20260505014433 65 199 0.0 0.0 0.00 0.00 0.00 49 1011.8
20260505013931 65 236 0.0 3.0 0.00 0.00 0.00 47 1011.6
20260505013428 65 199 1.0 2.0 0.00 0.00 0.00 47 1011.6
20260505012925 65 205 1.0 2.0 0.00 0.00 0.00 47 1011.7
20260505012423 66 179 1.0 3.0 0.00 0.00 0.00 47 1011.5
20260505011919 65 210 1.0 2.0 0.00 0.00 0.00 47 1011.7
20260505011416 66 157 2.0 2.0 0.00 0.00 0.00 47 1011.7
20260505010913 66 146 0.0 2.0 0.00 0.00 0.00 47 1011.5
20260505010408 66 179 1.0 2.0 0.00 0.00 0.00 46 1011.5
20260505005904 66 193 1.0 2.0 0.00 0.00 0.00 46 1011.3
20260505005401 67 152 0.0 2.0 0.00 0.00 0.00 46 1011.3
20260505004859 67 127 0.0 1.0 0.00 0.00 0.00 45 1011.3
20260505004355 67 151 1.0 4.0 0.00 0.00 0.00 44 1011.2
20260505003853 68 140 2.0 2.0 0.00 0.00 0.00 44 1011.1
20260505003350 68 184 2.0 4.0 0.00 0.00 0.00 44 1011.2
20260505002845 68 123 1.0 2.0 0.00 0.00 0.00 44 1011.1
20260505002342 69 191 3.0 8.0 0.00 0.00 0.00 43 1011.0
20260505001841 69 89 3.0 7.0 0.00 0.00 0.00 42 1011.0
20260505001338 69 156 1.0 3.0 0.00 0.00 0.00 43 1011.1
20260505000835 69 124 3.0 8.0 0.00 0.00 0.00 42 1011.3
20260505000333 69 114 1.0 3.0 0.00 0.00 0.00 41 1011.2
20260504235829 70 101 1.0 6.0 0.00 0.00 0.00 40 1011.1
20260504235326 70 165 3.0 7.0 0.00 0.00 0.00 39 1011.1
20260504234823 70 197 1.0 2.0 0.00 0.00 0.00 39 1011.0
20260504234320 70 236 1.0 2.0 0.00 0.00 0.00 40 1011.1
20260504233817 71 227 1.0 2.0 0.00 0.00 0.00 39 1010.9
20260504233313 71 157 2.0 4.0 0.00 0.00 0.00 39 1011.0
20260504232809 71 153 1.0 4.0 0.00 0.00 0.00 38 1011.0
20260504232307 72 175 4.0 4.0 0.00 0.00 0.00 38 1011.0
20260504231804 72 183 2.0 4.0 0.00 0.00 0.00 37 1011.2
20260504231300 72 194 1.0 2.0 0.00 0.00 0.00 38 1011.1
20260504230756 73 196 2.0 4.0 0.00 0.00 0.00 37 1011.1
20260504230254 73 312 1.0 3.0 0.00 0.00 0.00 37 1011.0
20260504225753 73 160 1.0 3.0 0.00 0.00 0.00 37 1011.1
20260504225249 73 214 2.0 6.0 0.00 0.00 0.00 36 1011.1
20260504224746 73 232 0.0 2.0 0.00 0.00 0.00 36 1011.0
20260504224243 73 124 2.0 7.0 0.00 0.00 0.00 36 1011.1
20260504223739 74 122 1.0 2.0 0.00 0.00 0.00 37 1011.1
20260504223235 74 147 1.0 7.0 0.00 0.00 0.00 37 1010.8
20260504222732 74 293 2.0 7.0 0.00 0.00 0.00 36 1011.0
20260504222229 74 173 3.0 4.0 0.00 0.00 0.00 35 1010.9
20260504221726 74 293 2.0 9.0 0.00 0.00 0.00 36 1011.0
20260504221218 75 195 2.0 3.0 0.00 0.00 0.00 35 1010.9
20260504220714 75 241 4.0 7.0 0.00 0.00 0.00 35 1010.9
20260504220212 74 150 2.0 9.0 0.00 0.00 0.00 36 1011.1
20260504215709 75 251 2.0 6.0 0.00 0.00 0.00 36 1011.2
20260504215206 74 168 1.0 9.0 0.00 0.00 0.00 36 1011.0
20260504214701 74 221 1.0 4.0 0.00 0.00 0.00 35 1011.2
20260504214158 74 139 2.0 8.0 0.00 0.00 0.00 35 1011.1
20260504213655 74 185 2.0 6.0 0.00 0.00 0.00 35 1011.3
20260504213151 75 282 3.0 9.0 0.00 0.00 0.00 35 1011.2
20260504212648 75 267 2.0 9.0 0.00 0.00 0.00 34 1011.3
20260504212145 74 118 4.0 8.0 0.00 0.00 0.00 34 1011.3
20260504211642 74 234 2.0 9.0 0.00 0.00 0.00 36 1011.3
20260504211138 74 178 4.0 7.0 0.00 0.00 0.00 34 1011.1
20260504210636 74 106 1.0 7.0 0.00 0.00 0.00 36 1011.3
20260504210132 74 197 6.0 7.0 0.00 0.00 0.00 34 1011.2
20260504205630 74 147 2.0 7.0 0.00 0.00 0.00 35 1011.4
20260504205127 74 207 4.0 8.0 0.00 0.00 0.00 34 1011.3
20260504204626 74 263 2.0 6.0 0.00 0.00 0.00 35 1011.3
20260504204124 74 287 4.0 9.0 0.00 0.00 0.00 35 1011.1
20260504203622 74 175 4.0 10.0 0.00 0.00 0.00 35 1011.2
20260504203120 74 161 2.0 7.0 0.00 0.00 0.00 36 1011.5
20260504202619 73 146 4.0 9.0 0.00 0.00 0.00 35 1011.3
20260504202117 74 129 4.0 6.0 0.00 0.00 0.00 35 1011.6
20260504201613 74 139 3.0 7.0 0.00 0.00 0.00 36 1011.6
20260504201111 74 259 7.0 10.0 0.00 0.00 0.00 34 1011.6
20260504200608 75 210 4.0 7.0 0.00 0.00 0.00 34 1011.6
20260504200104 75 201 3.0 8.0 0.00 0.00 0.00 34 1011.9
20260504195601 75 264 2.0 7.0 0.00 0.00 0.00 35 1011.7
20260504195057 73 268 3.0 9.0 0.00 0.00 0.00 35 1012.0
20260504194554 74 294 5.0 9.0 0.00 0.00 0.00 35 1012.2
20260504194049 73 223 4.0 13.0 0.00 0.00 0.00 35 1012.3
20260504193546 73 271 9.0 15.0 0.00 0.00 0.00 33 1012.2
20260504193045 73 146 5.0 10.0 0.00 0.00 0.00 35 1012.2
20260504192543 73 211 2.0 7.0 0.00 0.00 0.00 34 1012.4
20260504192040 73 285 4.0 11.0 0.00 0.00 0.00 33 1012.4
20260504191538 73 257 5.0 8.0 0.00 0.00 0.00 34 1012.5
20260504191034 73 284 9.0 11.0 0.00 0.00 0.00 33 1012.5
20260504190531 73 284 4.0 8.0 0.00 0.00 0.00 35 1012.8
20260504190026 72 227 3.0 7.0 0.00 0.00 0.00 36 1012.9
20260504185524 73 244 5.0 9.0 0.00 0.00 0.00 36 1012.7
20260504185020 73 199 3.0 7.0 0.00 0.00 0.00 35 1012.8
20260504184515 72 206 4.0 11.0 0.00 0.00 0.00 35 1012.7
20260504184011 73 292 3.0 15.0 0.00 0.00 0.00 37 1012.9
20260504183509 73 295 3.0 4.0 0.00 0.00 0.00 34 1012.8
20260504183007 73 294 3.0 10.0 0.00 0.00 0.00 36 1013.0
20260504182503 72 194 4.0 11.0 0.00 0.00 0.00 35 1013.1
20260504182001 73 330 2.0 7.0 0.00 0.00 0.00 36 1013.2
20260504181457 71 240 1.0 3.0 0.00 0.00 0.00 35 1013.3
20260504180956 71 184 1.0 7.0 0.00 0.00 0.00 35 1013.2
20260504180455 72 312 1.0 7.0 0.00 0.00 0.00 36 1013.5
20260504175953 72 155 2.0 8.0 0.00 0.00 0.00 36 1013.4
20260504175449 71 223 1.0 4.0 0.00 0.00 0.00 38 1013.3
20260504174947 71 182 4.0 7.0 0.00 0.00 0.00 34 1013.3
20260504174444 71 308 1.0 6.0 0.00 0.00 0.00 35 1013.4
20260504173942 71 304 3.0 11.0 0.00 0.00 0.00 34 1013.6
20260504173437 71 236 2.0 4.0 0.00 0.00 0.00 34 1013.6
20260504172936 71 242 3.0 7.0 0.00 0.00 0.00 35 1013.6
20260504172431 71 275 1.0 6.0 0.00 0.00 0.00 35 1013.7
20260504171928 70 202 3.0 8.0 0.00 0.00 0.00 34 1013.9
20260504171425 70 290 1.0 4.0 0.00 0.00 0.00 33 1014.0
20260504170922 71 207 4.0 8.0 0.00 0.00 0.00 33 1014.0
20260504170418 71 176 4.0 7.0 0.00 0.00 0.00 34 1014.1
20260504160337 68 300 5.0 14.0 0.00 0.00 0.00 34 1014.7
20260504150802 67 188 2.0 3.0 0.00 0.00 0.00 42 1015.1
20260504150259 67 120 2.0 8.0 0.00 0.00 0.00 42 1015.2
20260504141229 65 191 4.0 7.0 0.00 0.00 0.00 46 1015.5
20260504140725 64 271 1.0 7.0 0.00 0.00 0.00 49 1015.4
20260504140220 64 252 2.0 7.0 0.00 0.00 0.00 48 1015.4
20260504130649 60 155 2.0 8.0 0.00 0.00 0.00 58 1015.7
20260504130145 59 308 2.0 4.0 0.00 0.00 0.00 61 1015.8
20260504120110 55 300 1.0 4.0 0.00 0.00 0.00 77 1016.1
20260504110537 49 278 0.0 1.0 0.00 0.00 0.00 84 1016.4